| Back to River Map | <<< Previous Forecast Point | | | Next Forecast Point >>> | Printer Version | Graph Version |  |
|
KELSEY CREEK - KELSEYVILLE (KCVC1)
| Latitude: 38.93º N | Longitude: 122.84º W | Elevation: 1495 Feet | | Forecast Type: Unofficial Location |
| Location: Lake County in California | Bulletin Group: Lower Sacramento | River Group: Cache Putah |
| Issuance Time: | May 06 2026 at 7:47 AM PDT | Next Issuance: | May 07 2026 at 9:00 AM PDT
| |
| Action/Monitor: 11.0 Feet | Minor Flood: N/A | Moderate Flood: N/A | Major Flood: N/A |
# Tabular Observed and Forecast Hydrograph Information
#
# Location: Kelsey Creek - Kelseyville (KCVC1)
#
# File Generation Time: 05/06/2026 at 07:48 AM PDT
# Data Interval: 1 Hour
#
# Most Recent Date & Time of Maximum Observed: 05/01/2026 at 09:00 AM PDT
# Maximum Observed Stage: 3.03 Feet
# Maximum Observed Flow: 28 cfs
#
# Earliest Date & Time of Maximum Forecast: 05/06/2026 at 08:00 AM PDT
# Maximum Forecast Stage: 2.88 Feet
# Maximum Forecast Flow: 23 cfs
#
# OBSERVED
#
# Date & Time (Local) Stage (Feet) Flow (cfs) Trend Observed Status
# ---------------------------------------------------------------------------------
05/01/2026 07 AM PDT 3.03 28 Normal
05/01/2026 08 AM PDT 3.03 28 0 Normal
05/01/2026 09 AM PDT 3.03 28 0 Normal
05/01/2026 10 AM PDT 3.02 28 - Normal
05/01/2026 11 AM PDT 3.02 28 0 Normal
05/01/2026 12 PM PDT 3.02 28 0 Normal
05/01/2026 01 PM PDT 3.01 27 - Normal
05/01/2026 02 PM PDT 3.01 27 0 Normal
05/01/2026 03 PM PDT 3.01 27 0 Normal
05/01/2026 04 PM PDT 3.01 27 0 Normal
05/01/2026 05 PM PDT 3.01 27 0 Normal
05/01/2026 06 PM PDT 3.00 27 - Normal
05/01/2026 07 PM PDT 2.99 27 - Normal
05/01/2026 08 PM PDT 2.98 26 - Normal
05/01/2026 09 PM PDT 2.99 27 + Normal
05/01/2026 10 PM PDT 2.98 26 - Normal
05/01/2026 11 PM PDT 2.97 26 - Normal
05/02/2026 12 AM PDT 2.97 26 0 Normal
05/02/2026 01 AM PDT 2.96 26 - Normal
05/02/2026 02 AM PDT 2.97 26 + Normal
05/02/2026 03 AM PDT 2.97 26 0 Normal
05/02/2026 04 AM PDT 2.97 26 0 Normal
05/02/2026 05 AM PDT 2.97 26 0 Normal
05/02/2026 06 AM PDT 2.97 26 0 Normal
05/02/2026 07 AM PDT 2.97 26 0 Normal
05/02/2026 08 AM PDT 2.98 26 + Normal
05/02/2026 09 AM PDT 2.98 26 0 Normal
05/02/2026 10 AM PDT 2.98 26 0 Normal
05/02/2026 11 AM PDT 2.98 26 0 Normal
05/02/2026 12 PM PDT 2.98 26 0 Normal
05/02/2026 01 PM PDT 2.98 26 0 Normal
05/02/2026 02 PM PDT 2.97 26 - Normal
05/02/2026 03 PM PDT 2.97 26 0 Normal
05/02/2026 04 PM PDT 2.96 26 - Normal
05/02/2026 05 PM PDT 2.95 25 - Normal
05/02/2026 06 PM PDT 2.95 25 0 Normal
05/02/2026 07 PM PDT 2.94 25 - Normal
05/02/2026 08 PM PDT 2.93 25 - Normal
05/02/2026 09 PM PDT 2.93 25 0 Normal
05/02/2026 10 PM PDT 2.92 24 - Normal
05/02/2026 11 PM PDT 2.91 24 - Normal
05/03/2026 12 AM PDT 2.91 24 0 Normal
05/03/2026 01 AM PDT 2.92 24 + Normal
05/03/2026 02 AM PDT 2.92 24 0 Normal
05/03/2026 03 AM PDT 2.92 24 0 Normal
05/03/2026 04 AM PDT 2.92 24 0 Normal
05/03/2026 05 AM PDT 2.93 25 + Normal
05/03/2026 06 AM PDT 2.93 25 0 Normal
05/03/2026 07 AM PDT 2.93 25 0 Normal
05/03/2026 08 AM PDT 2.93 25 0 Normal
05/03/2026 09 AM PDT 2.94 25 + Normal
05/03/2026 10 AM PDT 2.94 25 0 Normal
05/03/2026 11 AM PDT 2.94 25 0 Normal
05/03/2026 12 PM PDT 2.94 25 0 Normal
05/03/2026 01 PM PDT 2.94 25 0 Normal
05/03/2026 02 PM PDT 2.94 25 0 Normal
05/03/2026 03 PM PDT 2.94 25 0 Normal
05/03/2026 04 PM PDT 2.94 25 0 Normal
05/03/2026 05 PM PDT 2.93 25 - Normal
05/03/2026 06 PM PDT 2.92 24 - Normal
05/03/2026 07 PM PDT 2.93 25 + Normal
05/03/2026 08 PM PDT 2.92 24 - Normal
05/03/2026 09 PM PDT 2.92 24 0 Normal
05/03/2026 10 PM PDT 2.91 24 - Normal
05/03/2026 11 PM PDT 2.91 24 0 Normal
05/04/2026 12 AM PDT 2.91 24 0 Normal
05/04/2026 01 AM PDT 2.91 24 0 Normal
05/04/2026 02 AM PDT 2.90 24 - Normal
05/04/2026 03 AM PDT 2.90 24 0 Normal
05/04/2026 04 AM PDT 2.91 24 + Normal
05/04/2026 05 AM PDT 2.91 24 0 Normal
05/04/2026 06 AM PDT 2.91 24 0 Normal
05/04/2026 07 AM PDT 2.90 24 - Normal
05/04/2026 08 AM PDT 2.90 24 0 Normal
05/04/2026 09 AM PDT 2.90 24 0 Normal
05/04/2026 10 AM PDT 2.90 24 0 Normal
05/04/2026 11 AM PDT 2.90 24 0 Normal
05/04/2026 12 PM PDT 2.90 24 0 Normal
05/04/2026 01 PM PDT 2.91 24 + Normal
05/04/2026 02 PM PDT 2.92 24 + Normal
05/04/2026 03 PM PDT 2.92 24 0 Normal
05/04/2026 04 PM PDT 2.92 24 0 Normal
05/04/2026 05 PM PDT 2.92 24 0 Normal
05/04/2026 06 PM PDT 2.92 24 0 Normal
05/04/2026 07 PM PDT 2.92 24 0 Normal
05/04/2026 08 PM PDT 2.92 24 0 Normal
05/04/2026 09 PM PDT 2.92 24 0 Normal
05/04/2026 10 PM PDT 2.93 25 + Normal
05/04/2026 11 PM PDT 2.93 25 0 Normal
05/05/2026 12 AM PDT 2.94 25 + Normal
05/05/2026 01 AM PDT 2.95 25 + Normal
05/05/2026 02 AM PDT 2.95 25 0 Normal
05/05/2026 03 AM PDT 2.95 25 0 Normal
05/05/2026 04 AM PDT 2.94 25 - Normal
05/05/2026 05 AM PDT 2.94 25 0 Normal
05/05/2026 06 AM PDT 2.94 25 0 Normal
05/05/2026 07 AM PDT 2.94 25 0 Normal
05/05/2026 08 AM PDT 2.93 25 - Normal
05/05/2026 09 AM PDT 2.93 25 0 Normal
05/05/2026 10 AM PDT 2.93 25 0 Normal
05/05/2026 11 AM PDT 2.94 25 + Normal
05/05/2026 12 PM PDT 2.93 25 - Normal
05/05/2026 01 PM PDT 2.92 24 - Normal
05/05/2026 02 PM PDT 2.92 24 0 Normal
05/05/2026 03 PM PDT 2.91 24 - Normal
05/05/2026 04 PM PDT 2.91 24 0 Normal
05/05/2026 05 PM PDT 2.90 24 - Normal
05/05/2026 06 PM PDT 2.89 23 - Normal
05/05/2026 07 PM PDT 2.89 23 0 Normal
05/05/2026 08 PM PDT 2.88 23 - Normal
05/05/2026 09 PM PDT 2.88 23 0 Normal
05/05/2026 10 PM PDT 2.88 23 0 Normal
05/05/2026 11 PM PDT 2.88 23 0 Normal
05/06/2026 12 AM PDT 2.88 23 0 Normal
05/06/2026 01 AM PDT 2.88 23 0 Normal
05/06/2026 02 AM PDT 2.88 23 0 Normal
05/06/2026 03 AM PDT 2.88 23 0 Normal
05/06/2026 04 AM PDT 2.88 23 0 Normal
05/06/2026 05 AM PDT 2.88 23 0 Normal
05/06/2026 06 AM PDT 2.88 23 0 Normal
05/06/2026 07 AM PDT 2.88 23 0 Normal
#
# FORECAST
#
# Date & Time (Local) Stage (Feet) Flow (cfs) Trend Forecast Status
# ---------------------------------------------------------------------------------
05/06/2026 08 AM PDT 2.88 23 Normal
05/06/2026 09 AM PDT 2.87 23 - Normal
05/06/2026 10 AM PDT 2.87 23 0 Normal
05/06/2026 11 AM PDT 2.87 23 0 Normal
05/06/2026 12 PM PDT 2.87 23 0 Normal
05/06/2026 01 PM PDT 2.87 23 0 Normal
05/06/2026 02 PM PDT 2.87 23 0 Normal
05/06/2026 03 PM PDT 2.86 22 - Normal
05/06/2026 04 PM PDT 2.86 22 0 Normal
05/06/2026 05 PM PDT 2.86 22 0 Normal
05/06/2026 06 PM PDT 2.86 22 0 Normal
05/06/2026 07 PM PDT 2.86 22 0 Normal
05/06/2026 08 PM PDT 2.86 22 0 Normal
05/06/2026 09 PM PDT 2.85 22 - Normal
05/06/2026 10 PM PDT 2.85 22 0 Normal
05/06/2026 11 PM PDT 2.85 22 0 Normal
05/07/2026 12 AM PDT 2.85 22 0 Normal
05/07/2026 01 AM PDT 2.85 22 0 Normal
05/07/2026 02 AM PDT 2.85 22 0 Normal
05/07/2026 03 AM PDT 2.85 22 0 Normal
05/07/2026 04 AM PDT 2.84 22 - Normal
05/07/2026 05 AM PDT 2.84 22 0 Normal
05/07/2026 06 AM PDT 2.84 22 0 Normal
05/07/2026 07 AM PDT 2.84 22 0 Normal
05/07/2026 08 AM PDT 2.84 22 0 Normal
05/07/2026 09 AM PDT 2.84 22 0 Normal
05/07/2026 10 AM PDT 2.84 22 0 Normal
05/07/2026 11 AM PDT 2.84 22 0 Normal
05/07/2026 12 PM PDT 2.84 22 0 Normal
05/07/2026 01 PM PDT 2.84 22 0 Normal
05/07/2026 02 PM PDT 2.83 21 - Normal
05/07/2026 03 PM PDT 2.83 21 0 Normal
05/07/2026 04 PM PDT 2.83 21 0 Normal
05/07/2026 05 PM PDT 2.83 21 0 Normal
05/07/2026 06 PM PDT 2.83 21 0 Normal
05/07/2026 07 PM PDT 2.83 21 0 Normal
05/07/2026 08 PM PDT 2.83 21 0 Normal
05/07/2026 09 PM PDT 2.83 21 0 Normal
05/07/2026 10 PM PDT 2.83 21 0 Normal
05/07/2026 11 PM PDT 2.83 21 0 Normal
05/08/2026 12 AM PDT 2.83 21 0 Normal
05/08/2026 01 AM PDT 2.83 21 0 Normal
05/08/2026 02 AM PDT 2.83 21 0 Normal
05/08/2026 03 AM PDT 2.83 21 0 Normal
05/08/2026 04 AM PDT 2.82 21 - Normal
05/08/2026 05 AM PDT 2.82 21 0 Normal
05/08/2026 06 AM PDT 2.82 21 0 Normal
05/08/2026 07 AM PDT 2.82 21 0 Normal
05/08/2026 08 AM PDT 2.82 21 0 Normal
05/08/2026 09 AM PDT 2.82 21 0 Normal
05/08/2026 10 AM PDT 2.82 21 0 Normal
05/08/2026 11 AM PDT 2.82 21 0 Normal
05/08/2026 12 PM PDT 2.82 21 0 Normal
05/08/2026 01 PM PDT 2.82 21 0 Normal
05/08/2026 02 PM PDT 2.82 21 0 Normal
05/08/2026 03 PM PDT 2.82 21 0 Normal
05/08/2026 04 PM PDT 2.81 21 - Normal
05/08/2026 05 PM PDT 2.81 21 0 Normal
05/08/2026 06 PM PDT 2.81 21 0 Normal
05/08/2026 07 PM PDT 2.81 21 0 Normal
05/08/2026 08 PM PDT 2.81 21 0 Normal
05/08/2026 09 PM PDT 2.81 21 0 Normal
05/08/2026 10 PM PDT 2.81 21 0 Normal
05/08/2026 11 PM PDT 2.81 21 0 Normal
05/09/2026 12 AM PDT 2.81 21 0 Normal
05/09/2026 01 AM PDT 2.81 21 0 Normal
05/09/2026 02 AM PDT 2.81 21 0 Normal
05/09/2026 03 AM PDT 2.81 21 0 Normal
05/09/2026 04 AM PDT 2.81 21 0 Normal
05/09/2026 05 AM PDT 2.81 21 0 Normal
05/09/2026 06 AM PDT 2.81 21 0 Normal
05/09/2026 07 AM PDT 2.81 21 0 Normal
05/09/2026 08 AM PDT 2.80 21 - Normal
05/09/2026 09 AM PDT 2.80 21 0 Normal
05/09/2026 10 AM PDT 2.80 21 0 Normal
05/09/2026 11 AM PDT 2.80 21 0 Normal
05/09/2026 12 PM PDT 2.80 21 0 Normal
05/09/2026 01 PM PDT 2.80 21 0 Normal
05/09/2026 02 PM PDT 2.80 21 0 Normal
05/09/2026 03 PM PDT 2.80 21 0 Normal
05/09/2026 04 PM PDT 2.80 21 0 Normal
05/09/2026 05 PM PDT 2.80 21 0 Normal
05/09/2026 06 PM PDT 2.80 21 0 Normal
05/09/2026 07 PM PDT 2.80 21 0 Normal
05/09/2026 08 PM PDT 2.80 21 0 Normal
05/09/2026 09 PM PDT 2.79 20 - Normal
05/09/2026 10 PM PDT 2.79 20 0 Normal
05/09/2026 11 PM PDT 2.79 20 0 Normal
05/10/2026 12 AM PDT 2.79 20 0 Normal
05/10/2026 01 AM PDT 2.79 20 0 Normal
05/10/2026 02 AM PDT 2.79 20 0 Normal
05/10/2026 03 AM PDT 2.79 20 0 Normal
05/10/2026 04 AM PDT 2.79 20 0 Normal
05/10/2026 05 AM PDT 2.79 20 0 Normal
05/10/2026 06 AM PDT 2.79 20 0 Normal
05/10/2026 07 AM PDT 2.79 20 0 Normal
05/10/2026 08 AM PDT 2.79 20 0 Normal
05/10/2026 09 AM PDT 2.79 20 0 Normal
05/10/2026 10 AM PDT 2.79 20 0 Normal
05/10/2026 11 AM PDT 2.79 20 0 Normal
05/10/2026 12 PM PDT 2.79 20 0 Normal
05/10/2026 01 PM PDT 2.79 20 0 Normal
05/10/2026 02 PM PDT 2.78 20 - Normal
05/10/2026 03 PM PDT 2.78 20 0 Normal
05/10/2026 04 PM PDT 2.78 20 0 Normal
05/10/2026 05 PM PDT 2.78 20 0 Normal
05/10/2026 06 PM PDT 2.78 20 0 Normal
05/10/2026 07 PM PDT 2.78 20 0 Normal
05/10/2026 08 PM PDT 2.78 20 0 Normal
05/10/2026 09 PM PDT 2.78 20 0 Normal
05/10/2026 10 PM PDT 2.78 20 0 Normal
05/10/2026 11 PM PDT 2.78 20 0 Normal
05/11/2026 12 AM PDT 2.78 20 0 Normal
05/11/2026 01 AM PDT 2.78 20 0 Normal
05/11/2026 02 AM PDT 2.78 20 0 Normal
05/11/2026 03 AM PDT 2.78 20 0 Normal
05/11/2026 04 AM PDT 2.77 20 - Normal
05/11/2026 05 AM PDT 2.77 20 0 Normal
#
# NOTE 1: Stages are rounded to the nearest hundredth (.01) of a foot.
# NOTE 2: Flows are rounded to the nearest (1) cfs.
# NOTE 3: Trends are determined using hourly change in unrounded stage and flow.
# NOTE 4: Maximum Values are determined using unrounded stage and flow.
|